Location: Mountain Grove
(34.0887°N, 86.6172°W)
Time: 21:59:36
(UTC+00:00)

Cosmos 2344 - Pass Details

Date: 14 July 2020
Orbit: 1249 x 2993 km, 63.3° (Epoch: 08 August)

Event Time Altitude Azimuth Distance (km) Brightness Sun altitude
Rises 03:15:12 0° 218° (SW) 4,434 6.3 -22.9°
Reaches altitude 10° 03:18:11 10° 221° (SW) 3,348 5.7 -23.3°
Maximum altitude 03:25:48 66° 303° (WNW) 1,351 3.8 -24.3°
Drops below altitude 10° 03:33:26 10° 26° (NNE) 3,346 6.1 -25.2°
Sets 03:36:25 0° 29° (NNE) 4,432 6.8 -25.6°
